Regional Weather Roundup
Issued by NWS

Home | Current Version | Previous Version | Graphics & Text | Print | Product List | Glossary On
Versions: 1 2 3 4 5 6 7 8 9 10 11 12 13 14 15 16 17 18 19 20 21 22 23 24 25 26 27
000
ASUS45 KTFX 240310
RWRMT
MONTANA REGIONAL WEATHER ROUNDUP
NATIONAL WEATHER SERVICE GREAT FALLS MT
900 PM MDT SUN APR 23 2017

NOTE: "FAIR" INDICATES FEW OR NO CLOUDS BELOW 12000 FEET WITH NO
SIGNIFICANT WEATHER AND/OR OBSTRUCTIONS TO VISIBILITY.

MTZ001>007-043-240400-
WEST OF THE DIVIDE

CITY           SKY/WX    TMP DP  RH WIND       PRES   REMARKS
KALISPELL      CLOUDY    48  40  73 S6G18     29.73R
MISSOULA       CLOUDY    48  38  68 N9        29.77R
BUTTE          CLOUDY    46  28  49 W6        29.75R
MULLAN PASS    CLOUDY    33  31  92 VRB6      29.76S WCI  28
ANACONDA         N/A     45  32  61 CALM      29.76R
DEER LODGE       N/A     43  34  70 W7        29.77R
EUREKA           N/A     46  36  66 E3        29.75F
HAMILTON         N/A     48  36  61 S8        29.76R
LIBBY            N/A     45  41  87 CALM      29.74S
PLAINS           N/A     50  36  58 CALM      29.79R
$$

MTZ008-052>055-240400-
SOUTHWEST MONTANA

CITY           SKY/WX    TMP DP  RH WIND       PRES   REMARKS
BOZEMAN        LGT RAIN  44  40  85 S6        29.76R
DILLON         CLOUDY    43  35  73 S10       29.75S
W YELLOWSTONE  CLOUDY    32  32 100 CALM      29.83R
ENNIS          CLOUDY    41  36  81 S12       29.82R
THREE FORKS      N/A     45  45 100 CALM      29.77S
TWIN BRIDGES     N/A     46  36  68 E3        29.78R
$$

MTZ009-010-012-014-046-048-049-054-240400-
EAST SLOPES AND CENTRAL MONTANA

CITY           SKY/WX    TMP DP  RH WIND       PRES   REMARKS
CUT BANK       CLOUDY    43  38  82 S3        29.68R
GREAT FALLS    MOCLDY    46  37  71 S6        29.68S
MALMSTROM AFB  MOCLDY    49  39  68 CALM      29.69R
HELENA         CLOUDY    47  35  63 NW8       29.71S
AUGUSTA          N/A     46  32  58 W14       29.70R
BOWMANS CRNR     N/A     44  32  63 W10       29.68R
CHOTEAU          N/A     43  39  87 E8        29.71S
FAIRFIELD      MOCLDY    47  39  74 N13       29.68R
POWER          LGT RAIN  45  41  85 NW16      29.70R
RAYNESFORD     MOCLDY    43  38  82 E5        29.70R
ULM            MOCLDY    45  39  79 E8        29.68S
$$

MTZ011-013-016-021-045-047-050-051-240400-
NORTH CENTRAL MONTANA

CITY           SKY/WX    TMP DP  RH WIND       PRES   REMARKS
HAVRE          MOCLDY    43  41  93 E12       29.70F
LEWISTOWN      CLOUDY    44  43  96 CALM      29.70R
N BAR RANCH    CLOUDY    41  39  93 W5        29.72R
CHINOOK          N/A     43  39  87 E8        29.73S
DENTON         MOCLDY    45  44  94 MISG      29.67R
FORT BENTON      N/A     46  43  87 MISG      29.71S
GEYSER           N/A     42  40  93 NW3       29.69S
GRASS RANGE    MOCLDY    44  43  98 N3        29.68R FOG
JUDITH GAP     MOCLDY    42  39  88 NW8       29.70S
STANFORD       MOCLDY    41  40  98 E3        29.70S
WINIFRED       MOCLDY    44  41  90 SE7       29.69S
$$

MTZ017>020-022>027-061-062-240400-
NORTHEAST MONTANA

CITY           SKY/WX    TMP DP  RH WIND       PRES   REMARKS
GLASGOW        CLOUDY    34  29  82 E17       29.74R WCI  23
JORDAN           N/A     44  38  79 E6        29.72R
SIDNEY         CLOUDY    33  30  88 E12       29.79F WCI  24
WOLF POINT     LGT RAIN  35  31  85 E18       29.79F WCI  24
MALTA          CLOUDY    39  32  75 E14       29.74S WCI  31
PLENTYWOOD       N/A     28  28 100 E18G26    29.83S WCI  16
POPLAR           N/A     34  30  86 E12G18    29.81F WCI  25
SCOBEY           N/A     31  24  75 E9        29.79S WCI  23
$$

MTZ028>42-056>058-240400-
SOUTHCENTRAL AND SOUTHEAST MONTANA

CITY           SKY/WX    TMP DP  RH WIND       PRES   REMARKS
BAKER          CLOUDY    39  33  79 E22G28    29.67F WCI  29
BILLINGS       CLOUDY    49  40  71 NW12      29.68R
LIVINGSTON     CLOUDY    45  37  73 W17       29.73S
MILES CITY     CLOUDY    46  36  68 NE15      29.63R
BIG TIMBER     PTCLDY    45  37  76 SW20G29   29.73S
EKALAKA          N/A     42  35  76 E21       29.64F
LAUREL           N/A     49  32  52 CALM      29.72R
ROUNDUP          N/A     46  40  79 N7        29.65S
$$

REGIONAL REPORTS...DAKOTAS

CITY           SKY/WX    TMP DP  RH WIND       PRES   REMARKS
WILLISTON      CLOUDY    31  27  85 E15       29.85F WCI  20
MINOT          CLOUDY    31  28  89 E16       29.90F WCI  20
DICKINSON      CLOUDY    31  30  96 E21       29.74F FOG     WCI  18
BEACH          CLOUDY    36  36 100 E21G30    29.74F WCI  24
TIOGA          CLOUDY    27  27 100 E24       29.87S WCI  12
WATFORD CITY   CLOUDY    28  30 100 E15G22    29.82F WCI  17
BISMARCK       CLOUDY    33  31  92 E18       29.86R WCI  22
GRAND FORKS    LGT SNOW  33  30  88 NE20      29.99F FOG     WCI  21
FARGO          PTCLDY    38  32  79 E15G24    29.89F WCI  29
BUFFALO SD       N/A     44  38  79 E24G30    29.60F
RAPID CITY     CLOUDY    53  40  61 N10       29.62F
$$

REGIONAL REPORTS...WYOMING/IDAHO/WASHINGTON

CITY           SKY/WX    TMP DP  RH WIND       PRES   REMARKS
GILLETTE       CLOUDY    62  34  35 SW16      29.61R
SHERIDAN       CLOUDY    54  42  64 NW9       29.62R
BUFFALO WY     CLOUDY    57  34  41 SW9       29.64R
CODY           CLOUDY    49  33  54 N8        29.72R
YELLOWSTONE LA   N/A     32  31  96 W10       29.85R WCI  24
IDAHO FALLS    CLOUDY    49  35  58 CALM      29.79R
SALMON         PTCLDY    43  37  81 CALM      29.77F
BOISE          CLOUDY    57  40  52 NE5       29.76S
SPOKANE        CLOUDY    53  36  52 SW10      29.75S
$$

REGIONAL REPORTS...ALBERTA

CITY           SKY/WX    TMP DP  RH WIND       PRES   REMARKS
EDMONTON       CLOUDY    32  30  93 E8        29.79S WCI  25
CALGARY        LGT RAIN  39  36  87 NE7       29.69F
LETHBRIDGE     CLOUDY    46  39  76 N6        29.68R
MEDICINE HAT   MOCLDY    45  41  87 SW5       29.67F
WATERTON GATE    N/A     43  28  56 SW8         N/A
CARDSTON         N/A     43  34  70 NW5         N/A
MILK RIVER       N/A     48  41  76 W9          N/A
$$

REGIONAL REPORTS...SASKATCHEWAN

CITY           SKY/WX    TMP DP  RH WIND       PRES   REMARKS
SWIFT CURRENT  LGT SNOW  30  30 100 SE12G18   29.75S WCI  21
REGINA         FLURRIES  32  21  64 E23G31    29.90R WCI  19
SASKATOON      LGT SNOW  32  32 100 SE13G18   29.91R FOG     WCI  22
CYPRESS HILLS    N/A     34  32  93 S10         N/A  WCI  26
VAL MARIE        N/A     34  30  86 SE10        N/A  WCI  26
ROCKGLEN         N/A     28  28 100 SE15        N/A  WCI  17
ASSINIBOIA       N/A     34  34 100 E9          N/A  WCI  26
$$




USA.gov is the U.S. government's official web portal to all federal, state and local government web resources and services.